| time (UTC) | temp F | wind direction | speed knots | gust knots | rain 1hr in | rain 24hr in | rain mn in | humidity % | barometer mb |
| 20260510054516 | 54 | 120 | 0.0 | 0.9 | 0.01 | 0.33 | 0.00 | 78 | 1009.9 |
| 20260510053034 | 54 | 120 | 0.0 | 3.5 | 0.02 | 0.33 | 0.00 | 78 | 1010.1 |
| 20260510051513 | 54 | 20 | 1.7 | 7.8 | 0.04 | 0.33 | 0.00 | 78 | 1010.5 |
| 20260510050009 | 54 | 33 | 0.0 | 0.9 | 0.05 | 0.32 | 0.32 | 78 | 1009.8 |
| 20260510044510 | 55 | 33 | 0.0 | 5.2 | 0.06 | 0.32 | 0.32 | 78 | 1009.9 |
| 20260510043009 | 55 | 352 | 0.0 | 3.5 | 0.05 | 0.31 | 0.31 | 77 | 1009.8 |
| 20260510041508 | 55 | 114 | 0.0 | 0.9 | 0.03 | 0.28 | 0.28 | 77 | 1009.7 |
| 20260510040008 | 55 | 116 | 0.0 | 2.6 | 0.01 | 0.28 | 0.27 | 77 | 1009.5 |
| 20260510034508 | 54 | 155 | 0.0 | 3.5 | 0.00 | 0.27 | 0.26 | 76 | 1009.3 |
| 20260510033007 | 54 | 131 | 0.0 | 1.7 | 0.02 | 0.27 | 0.26 | 74 | 1009.4 |
| 20260510031506 | 54 | 68 | 0.0 | 0.9 | 0.12 | 0.27 | 0.26 | 69 | 1009.5 |
| 20260510030006 | 55 | 67 | 0.0 | 0.9 | 0.19 | 0.28 | 0.26 | 68 | 1009.6 |
| 20260510024606 | 55 | 67 | 0.0 | 2.6 | 0.19 | 0.28 | 0.26 | 68 | 1009.8 |
| 20260510023005 | 56 | 343 | 0.0 | 4.3 | 0.16 | 0.25 | 0.23 | 65 | 1010.4 |
| 20260510021505 | 57 | 281 | 1.7 | 15.6 | 0.06 | 0.15 | 0.13 | 62 | 1010.6 |
| 20260510020003 | 60 | 213 | 3.5 | 10.4 | 0.00 | 0.10 | 0.07 | 57 | 1009.2 |
| 20260510014503 | 63 | 2 | 4.3 | 12.2 | 0.00 | 0.10 | 0.07 | 52 | 1008.8 |
| 20260510013002 | 63 | 288 | 0.0 | 5.2 | 0.00 | 0.10 | 0.07 | 52 | 1007.8 |
| 20260510011502 | 63 | 261 | 0.9 | 4.3 | 0.00 | 0.10 | 0.07 | 51 | 1007.5 |
| 20260510010001 | 63 | 248 | 0.9 | 5.2 | 0.00 | 0.10 | 0.07 | 51 | 1007.4 |
| 20260510004501 | 63 | 215 | 0.9 | 7.8 | 0.00 | 0.10 | 0.07 | 50 | 1007.4 |
| 20260510003108 | 64 | 191 | 1.7 | 7.0 | 0.00 | 0.10 | 0.07 | 49 | 1007.3 |
| 20260510001600 | 64 | 306 | 1.7 | 5.2 | 0.00 | 0.10 | 0.07 | 48 | 1007.2 |
| 20260510000127 | 65 | 315 | 0.9 | 8.7 | 0.00 | 0.10 | 0.07 | 47 | 1007.1 |
| 20260509234600 | 65 | 181 | 1.7 | 5.2 | 0.00 | 0.10 | 0.07 | 46 | 1006.9 |
| 20260509233059 | 65 | 206 | 2.6 | 9.6 | 0.00 | 0.10 | 0.07 | 46 | 1006.7 |
| 20260509231621 | 66 | 257 | 0.9 | 10.4 | 0.00 | 0.10 | 0.07 | 45 | 1006.7 |
| 20260509230108 | 66 | 275 | 0.9 | 12.2 | 0.00 | 0.10 | 0.07 | 47 | 1006.8 |
| 20260509224557 | 67 | 229 | 4.3 | 11.3 | 0.00 | 0.10 | 0.07 | 44 | 1006.9 |
| 20260509223105 | 67 | 46 | 4.3 | 10.4 | 0.00 | 0.10 | 0.07 | 44 | 1006.8 |
| 20260509221612 | 67 | 279 | 1.7 | 9.6 | 0.00 | 0.10 | 0.07 | 47 | 1006.7 |
| 20260509220055 | 68 | 161 | 0.9 | 11.3 | 0.00 | 0.10 | 0.07 | 45 | 1006.8 |
| 20260509214601 | 68 | 208 | 1.7 | 9.6 | 0.00 | 0.10 | 0.07 | 46 | 1007.1 |
| 20260509213051 | 67 | 238 | 1.7 | 8.7 | 0.00 | 0.10 | 0.07 | 47 | 1007.4 |
| 20260509211552 | 68 | 266 | 1.7 | 12.2 | 0.00 | 0.10 | 0.07 | 47 | 1007.2 |
| 20260509210050 | 67 | 266 | 2.6 | 7.8 | 0.00 | 0.10 | 0.07 | 47 | 1007.3 |
| 20260509204547 | 66 | 297 | 1.7 | 10.4 | 0.00 | 0.10 | 0.07 | 49 | 1007.5 |
| 20260509203046 | 67 | 268 | 3.5 | 12.2 | 0.00 | 0.10 | 0.07 | 48 | 1007.8 |
| 20260509201545 | 67 | 247 | 1.7 | 9.6 | 0.00 | 0.10 | 0.07 | 44 | 1007.8 |
| 20260509200047 | 66 | 242 | 5.2 | 13.0 | 0.00 | 0.10 | 0.07 | 47 | 1007.9 |
| 20260509194550 | 67 | 276 | 3.5 | 11.3 | 0.00 | 0.10 | 0.07 | 49 | 1008.2 |
| 20260509193040 | 66 | 239 | 2.6 | 12.2 | 0.00 | 0.10 | 0.07 | 50 | 1008.4 |
| 20260509191536 | 65 | 286 | 3.5 | 11.3 | 0.00 | 0.10 | 0.07 | 53 | 1008.4 |
| 20260509190033 | 65 | 202 | 2.6 | 8.7 | 0.00 | 0.10 | 0.07 | 51 | 1008.5 |
| 20260509184535 | 64 | 241 | 3.5 | 8.7 | 0.00 | 0.10 | 0.07 | 54 | 1008.6 |
| 20260509183036 | 63 | 143 | 0.9 | 7.8 | 0.00 | 0.10 | 0.07 | 57 | 1009.1 |
| 20260509181527 | 63 | 290 | 1.7 | 9.6 | 0.00 | 0.10 | 0.07 | 59 | 1009.1 |
| 20260509180024 | 61 | 325 | 3.5 | 12.2 | 0.00 | 0.10 | 0.07 | 60 | 1009.4 |
| 20260509174538 | 60 | 250 | 1.7 | 7.0 | 0.00 | 0.10 | 0.07 | 64 | 1009.4 |
| 20260509173019 | 59 | 283 | 0.0 | 7.0 | 0.00 | 0.10 | 0.07 | 64 | 1009.4 |
| 20260509171526 | 59 | 270 | 1.7 | 7.8 | 0.00 | 0.10 | 0.07 | 63 | 1009.3 |
| 20260509170019 | 59 | 252 | 1.7 | 7.0 | 0.00 | 0.10 | 0.07 | 63 | 1009.3 |
| 20260509164518 | 59 | 248 | 2.6 | 10.4 | 0.00 | 0.10 | 0.07 | 62 | 1009.2 |
| 20260509163014 | 58 | 258 | 0.0 | 7.0 | 0.00 | 0.10 | 0.07 | 66 | 1009.2 |
| 20260509161521 | 58 | 155 | 3.5 | 7.0 | 0.00 | 0.10 | 0.07 | 66 | 1009.2 |
| 20260509160010 | 57 | 354 | 1.7 | 4.3 | 0.00 | 0.10 | 0.07 | 69 | 1009.0 |
| 20260509154509 | 57 | 204 | 3.5 | 11.3 | 0.00 | 0.10 | 0.07 | 68 | 1008.9 |
| 20260509153006 | 56 | 260 | 0.9 | 8.7 | 0.00 | 0.10 | 0.07 | 74 | 1008.8 |
| 20260509151505 | 54 | 273 | 1.7 | 7.0 | 0.00 | 0.10 | 0.07 | 73 | 1008.9 |
| 20260509150006 | 54 | 304 | 0.9 | 4.3 | 0.00 | 0.10 | 0.07 | 77 | 1008.8 |
| 20260509144559 | 54 | 277 | 0.9 | 3.5 | 0.00 | 0.10 | 0.07 | 78 | 1009.0 |
| 20260509143100 | 53 | 279 | 0.0 | 4.3 | 0.00 | 0.10 | 0.07 | 78 | 1009.1 |
| 20260509141559 | 52 | 276 | 0.9 | 3.5 | 0.00 | 0.10 | 0.07 | 78 | 1009.1 |
| 20260509140101 | 52 | 137 | 0.9 | 5.2 | 0.00 | 0.10 | 0.07 | 78 | 1009.0 |
| 20260509134549 | 52 | 250 | 2.6 | 7.0 | 0.00 | 0.10 | 0.07 | 78 | 1009.0 |
| 20260509133048 | 52 | 162 | 0.9 | 3.5 | 0.00 | 0.10 | 0.07 | 78 | 1009.0 |
| 20260509131549 | 51 | 290 | 1.7 | 7.8 | 0.01 | 0.10 | 0.07 | 78 | 1009.1 |
| 20260509130046 | 51 | 214 | 0.9 | 4.3 | 0.02 | 0.10 | 0.07 | 78 | 1009.2 |
| 20260509124543 | 51 | 261 | 1.7 | 7.8 | 0.02 | 0.10 | 0.07 | 78 | 1009.3 |
| 20260509123048 | 51 | 257 | 0.0 | 4.3 | 0.02 | 0.10 | 0.07 | 78 | 1009.4 |
| 20260509121540 | 51 | 266 | 0.0 | 3.5 | 0.01 | 0.09 | 0.06 | 78 | 1009.5 |
| 20260509120040 | 51 | 199 | 0.9 | 3.5 | 0.01 | 0.08 | 0.05 | 78 | 1009.4 |
| 20260509114538 | 51 | 279 | 0.9 | 4.3 | 0.01 | 0.08 | 0.05 | 78 | 1009.4 |
| 20260509113038 | 50 | 267 | 1.7 | 4.3 | 0.01 | 0.08 | 0.05 | 78 | 1009.2 |
| 20260509111536 | 50 | 154 | 0.9 | 4.3 | 0.02 | 0.08 | 0.05 | 78 | 1009.2 |
| 20260509110035 | 50 | 175 | 1.7 | 3.5 | 0.03 | 0.07 | 0.04 | 77 | 1009.2 |
| 20260509104533 | 50 | 229 | 1.7 | 5.2 | 0.03 | 0.07 | 0.04 | 78 | 1009.1 |
| 20260509103036 | 50 | 250 | 1.7 | 4.3 | 0.02 | 0.06 | 0.03 | 78 | 1009.1 |
| 20260509101531 | 50 | 106 | 0.9 | 4.3 | 0.02 | 0.06 | 0.03 | 78 | 1009.1 |
| 20260509100029 | 50 | 262 | 0.0 | 5.2 | 0.01 | 0.04 | 0.01 | 78 | 1009.1 |
| 20260509094527 | 50 | 157 | 0.0 | 2.6 | 0.01 | 0.04 | 0.01 | 78 | 1009.2 |
| 20260509093037 | 50 | 206 | 0.9 | 3.5 | 0.01 | 0.04 | 0.01 | 78 | 1009.4 |
| 20260509091523 | 49 | 158 | 0.9 | 2.6 | 0.01 | 0.04 | 0.01 | 78 | 1009.6 |
| 20260509090023 | 49 | 293 | 0.0 | 2.6 | 0.00 | 0.03 | 0.00 | 78 | 1009.6 |
| 20260509084525 | 49 | 15 | 0.0 | 0.0 | 0.00 | 0.03 | 0.00 | 78 | 1009.7 |
| 20260509083019 | 49 | 16 | 0.0 | 0.0 | 0.00 | 0.03 | 0.00 | 78 | 1009.8 |
| 20260509081519 | 49 | 16 | 0.0 | 0.0 | 0.00 | 0.03 | 0.00 | 78 | 1009.9 |
| 20260509080018 | 49 | 16 | 0.0 | 0.0 | 0.00 | 0.03 | 0.00 | 78 | 1009.8 |
| 20260509074516 | 49 | 16 | 0.0 | 0.0 | 0.00 | 0.03 | 0.00 | 78 | 1009.9 |
| 20260509073015 | 49 | 16 | 0.0 | 0.0 | 0.00 | 0.03 | 0.00 | 77 | 1010.1 |
| 20260509071514 | 49 | 16 | 0.0 | 0.0 | 0.00 | 0.03 | 0.00 | 77 | 1010.0 |
| 20260509070014 | 49 | 16 | 0.0 | 0.0 | 0.00 | 0.03 | 0.00 | 77 | 1009.9 |
| 20260509064513 | 49 | 16 | 0.0 | 0.0 | 0.00 | 0.03 | 0.00 | 77 | 1010.0 |
| 20260509063017 | 50 | 16 | 0.0 | 0.0 | 0.00 | 0.03 | 0.00 | 76 | 1010.1 |
| 20260509061511 | 50 | 16 | 0.0 | 0.0 | 0.00 | 0.03 | 0.00 | 76 | 1010.1 |
| 20260509060008 | 50 | 16 | 0.0 | 0.0 | 0.00 | 0.03 | 0.00 | 76 | 1010.3 |